User: anonymous   Login
Location: Unspecified
(0.0000°N, 0.0000°E)
Time: 16:32:45
(UTC+00:00)
Language:

RISAT 1 - Orbit

View from above orbital plane
View from above orbital plane
View from above satellite
View from above satellite

Ground track
Ground track

The orbit data is extracted from the following two-line orbital elements,

1 38248U 12017A   15150.15339631  .00001306  00000-0  86696-4 0  9998
2 38248 097.5611 157.3340 0005839 088.8133 328.3394 15.08943357170280
Epoch (UTC): 30 May 2015 03:40:53
Eccentricity: 0.0005839
inclination: 97.5611°
perigee height: 535 km
apogee height: 543 km
right ascension of ascending node: 157.3340°
argument of perigee: 88.8133°
revolutions per day: 15.08943357
mean anomaly at epoch: 328.3394°
orbit number at epoch: 17028

The dashed part of the orbit path shows where the satellite is in the earth's shadow,  

DLR